Location: Warszawa
(52.2500°N, 21.0000°E)
Time: 15:40:54
(UTC+02:00)

ITUPSAT 1 - Visible Passes

Search period start: 13 July 2025 00:00
Search period end: 23 July 2025 00:00
Orbit: 689 x 699 km, 98.4° (Epoch: 12 July)

Date Brightness Start Highest point End Pass type
(mag) Time Alt. Az. Time Alt. Az. Time Alt. Az.
13 Jul ? 01:01:42 10° N 01:05:38 27° WNW 01:09:34 10° WSW visible
13 Jul ? 22:27:23 10° NE 22:30:32 17° E 22:33:03 12° SE visible
14 Jul ? 00:03:54 10° NNE 00:08:38 75° WNW 00:11:45 21° SSW visible
14 Jul ? 01:42:56 10° NNW 01:45:26 14° NW 01:47:55 10° W visible
14 Jul ? 23:06:47 10° NNE 23:11:11 36° E 23:13:43 21° SSE visible
15 Jul ? 00:44:25 10° N 00:48:44 36° WNW 00:52:26 13° SW visible
15 Jul ? 22:11:17 10° ENE 22:13:14 12° E 22:15:10 10° ESE visible
15 Jul ? 23:46:50 10° NNE 23:51:36 80° ESE 23:54:25 24° S visible
16 Jul ? 01:25:21 10° NNW 01:28:36 19° NW 01:31:51 10° W visible
16 Jul ? 22:50:00 10° NE 22:53:59 26° E 22:56:22 18° SE visible
17 Jul ? 00:27:13 10° N 00:31:47 48° WNW 00:35:05 18° SW visible
17 Jul ? 23:29:49 10° NNE 23:34:30 57° E 23:37:03 26° S visible
18 Jul ? 01:07:57 10° N 01:11:44 25° WNW 01:15:31 10° WSW visible
18 Jul ? 22:33:22 10° NE 22:36:44 19° E 22:39:00 14° SE visible
19 Jul ? 00:10:04 10° N 00:14:46 67° WNW 00:17:43 22° SSW visible
19 Jul ? 01:49:19 10° NNW 01:51:30 13° NW 01:53:40 10° WNW visible
19 Jul ? 23:12:53 10° NNE 23:17:21 40° E 23:19:40 24° SSE visible
20 Jul ? 00:50:39 10° N 00:54:50 32° WNW 00:58:23 13° WSW visible
20 Jul ? 22:17:03 10° NE 22:19:27 14° E 22:21:37 11° ESE visible
20 Jul ? 23:52:59 10° NNE 23:57:44 88° ESE 00:00:19 27° SSW visible
21 Jul ? 01:31:38 10° NNW 01:34:40 17° NW 01:37:42 10° W visible
21 Jul ? 22:56:02 10° NNE 23:00:10 29° E 23:02:17 21° SE visible
22 Jul ? 00:33:24 10° N 00:37:53 44° WNW 00:40:59 18° SW visible
22 Jul ? 23:35:56 10° NNE 23:40:38 64° ESE 23:42:56 29° S visible
